Home   Weather   Almaty   Past weeks

Flag for Kazakhstan Past Weather in Almaty, Kazakhstan — Yesterday and Last 2 Weeks

30 °F

Light snow. Ice fog.

Feels Like: 27 °F
Forecast: 15 / 45 °F
Wind: 3 mph from Southeast

Location: Almaty Airport

Current Time: Oct 26, 2016 at 11:56:56 AM

Latest Report: Oct 26, 2016 at 11:30 AM

Visibility: 3 mi

Pressure: 30.66 "Hg (27.76 "Hg at 790m altitude)

Humidity: 86%

Dew Point: 27 °F

Location of AlmatyLocation

Past Weather in Almaty — Graph


Almaty Temperature Yesterday

Maximum temperature yesterday: 32 °F (at 12:00 AM)
Minimum temperature yesterday: 30 °F (at 7:00 AM)
Average temperature yesterday: 32 °F

High & Low Weather Summary for the Past Weeks

High75 °F (Oct 16, 3:30 PM)100% (Oct 14, 3:30 AM)30.63 "Hg (Oct 14, 3:30 AM)
Low25 °F (Oct 15, 6:00 AM)16% (Oct 12, 12:00 PM)29.83 "Hg (Oct 13, 12:30 PM)
Average41 °F75%30.20 "Hg
* Reported Oct 11 10:00 AM — Oct 26 10:30 AM, Almaty, Weather by CustomWeather, © 2016

Note: Actual official high and low records may vary slightly from our data, if they occured in-between our weather recording intervals... More about our weather records


Almaty Weather History for the Previous 24 Hours

Scroll right to see more
Time TempWeatherWind HumidityBarometerVisibility
10:30 AM
Wed, Oct 26
30 °FLight snow. Ice fog.6 mph86%30.63 "Hg2 mi
10:00 AM30 °FLight snow. Ice fog.1 mph80%30.63 "Hg3 mi
9:30 AM30 °FLight snow. Ice fog.1 mph80%30.63 "Hg3 mi
9:00 AM30 °FLight snow. Ice fog.3 mph80%30.63 "Hg3 mi
8:30 AM30 °FLight snow. Ice fog.1 mph86%30.60 "Hg3 mi
8:00 AM30 °FLight snow. Ice fog.3 mph86%30.60 "Hg3 mi
7:30 AM30 °FLight snow. Ice fog.6 mph86%30.57 "Hg3 mi
7:00 AM30 °FIce fog.6 mph86%30.57 "Hg3 mi
6:30 AM30 °FIce fog.1 mph93%30.54 "Hg3 mi
6:00 AM30 °FIce fog.3 mph93%30.54 "Hg3 mi
5:30 AM30 °FIce fog.3 mph93%30.54 "Hg3 mi
5:00 AM30 °FIce fog.3 mph93%30.54 "Hg3 mi
4:30 AM30 °FIce fog.3 mph93%30.54 "Hg3 mi
4:00 AM30 °FLight freezing rain. Ice fog.1 mph93%30.51 "Hg3 mi
3:30 AM30 °FIce fog.3 mph93%30.51 "Hg2 mi
3:00 AM30 °FIce fog.3 mph93%30.51 "Hg3 mi
2:30 AM30 °FIce fog.1 mph93%30.51 "Hg3 mi
2:00 AM30 °FIce fog.1 mph86%30.51 "Hg3 mi
1:30 AM30 °FIce fog.1 mph86%30.48 "Hg3 mi
1:00 AM30 °FIce fog.1 mph86%30.48 "Hg3 mi
12:30 AM30 °FOvercast.3 mph86%30.48 "HgN/A
12:00 AM30 °FOvercast.3 mph86%30.48 "HgN/A
11:30 PM
Tue, Oct 25
30 °FIce fog.3 mph86%30.48 "Hg3 mi
11:00 PM30 °FIce fog.3 mph86%30.48 "Hg3 mi
10:30 PM32 °FIce fog.3 mph87%30.48 "Hg3 mi
10:00 PM32 °FIce fog.6 mph87%30.48 "Hg3 mi
9:30 PM32 °FIce fog.3 mph87%30.48 "Hg3 mi
9:00 PM32 °FIce fog.3 mph87%30.48 "Hg3 mi
8:30 PM32 °FIce fog.3 mph87%30.48 "Hg3 mi
8:00 PM32 °FIce fog.3 mph87%30.48 "Hg3 mi
7:30 PM32 °FIce fog.3 mph87%30.48 "Hg3 mi
7:00 PM32 °FIce fog.1 mph87%30.45 "Hg3 mi
6:30 PM32 °FIce fog.3 mph87%30.45 "Hg3 mi
6:00 PM32 °FIce fog.3 mph87%30.45 "Hg3 mi
5:30 PM32 °FLight rain. Ice fog.3 mph87%30.45 "Hg3 mi
5:00 PM32 °FIce fog.1 mph93%30.42 "Hg3 mi
4:30 PM32 °FIce fog.1 mph93%30.42 "Hg3 mi
4:00 PM32 °FIce fog.1 mph93%30.42 "Hg3 mi
3:30 PM32 °FLight freezing rain. Ice fog.1 mph93%30.42 "Hg3 mi
3:00 PM32 °FLight freezing rain. Ice fog.No wind93%30.42 "Hg3 mi
2:30 PM32 °FLight freezing rain. Ice fog.No wind93%30.39 "Hg3 mi
2:00 PM32 °FLight snow. Ice fog.No wind87%30.39 "Hg2 mi
1:30 PM32 °FLight snow. Ice fog.3 mph87%30.39 "Hg2 mi
1:00 PM32 °FLight snow. Ice fog.3 mph87%30.39 "Hg2 mi
12:30 PM32 °FLight snow. Ice fog.6 mph87%30.39 "Hg3 mi
12:00 PM32 °FLight snow. Ice fog.3 mph87%30.39 "Hg3 mi
11:30 AM32 °FOvercast.3 mph87%30.36 "HgN/A
11:00 AM32 °FOvercast.6 mph93%30.36 "HgN/A
Weather by CustomWeather, © 2016

See weather overviewHow to use our weather pages